Orbital Elements at Epoch 2459200.5 (2020-Dec-17.0) TDB
Reference: JPL 18 (heliocentric ecliptic J2000)
Element | Value | Uncertainty (1-sigma) | Units |
e | .09386057863438428 | 5.929e-08 | |
a | 5.164996938116128 | 1.1427e-07 | au |
q | 4.680207336859725 | 3.5741e-07 | au |
i | 4.063205147196068 | 4.6572e-06 | deg |
node | 60.48459940772543 | 8.4423e-05 | deg |
peri | 300.8977855695587 | 8.9207e-05 | deg |
M | 15.11135105105274 | 2.5255e-05 | deg |
tp | 2459020.528256703893 (2020-Jun-20.02825670) | 0.00030377 | TDB |
period | 4287.494041248207 11.74 | 0.00014228 3.895e-07 | d yr |
n | .08396513127169131 | 2.7865e-09 | deg/d |
Q | 5.649786539372531 | 1.25e-07 | au |
|
| | Orbit Determination Parameters
Additional Information
|